<?xml version='1.0' encoding='UTF-8'?>
<gpx xmlns="http://www.topografix.com/GPX/1/1" creator="www.balnam.be" version="1.1" xmlns:xsi="http://www.w3.org/2001/XMLSchema-instance" xsi:schemaLocation="http://www.topografix.com/GPX/1/1 http://www.topografix.com/GPX/1/1/gpx.xsd">
<trk>
<name>lreho13</name>
<cmt>q</cmt>
<desc>Hodeige Chemin n°13 </desc>
<link href="https://chemins.be/hodeige/chemin/13"/><trkseg>
<trkpt lat="50.703394" lon="5.341349"><time>2026-05-02T17:44:26Z</time></trkpt>
<trkpt lat="50.704237" lon="5.338452"><time>2026-05-02T17:54:26Z</time></trkpt>
<trkpt lat="50.704495" lon="5.338302"><time>2026-05-02T18:04:26Z</time></trkpt>
</trkseg>
</trk>
<trk>
<name>lreho17</name>
<cmt>d</cmt>
<desc>Hodeige Chemin n°17 </desc>
<link href="https://chemins.be/hodeige/chemin/17"/><trkseg>
<trkpt lat="50.693607" lon="5.340950"><time>2026-05-02T17:44:26Z</time></trkpt>
<trkpt lat="50.693461" lon="5.341286"><time>2026-05-02T17:54:26Z</time></trkpt>
<trkpt lat="50.692466" lon="5.341834"><time>2026-05-02T18:04:26Z</time></trkpt>
</trkseg></trk>
<trk>
<name>lreho17</name>
<cmt>s</cmt>
<desc>Hodeige Chemin n°17 </desc>
<link href="https://chemins.be/hodeige/chemin/17"/><trkseg>
<trkpt lat="50.692466" lon="5.341834"><time>2026-05-02T18:04:26Z</time></trkpt>
<trkpt lat="50.691509" lon="5.342407"><time>2026-05-02T18:14:26Z</time></trkpt>
<trkpt lat="50.690760" lon="5.343849"><time>2026-05-02T18:24:26Z</time></trkpt>
</trkseg>
</trk>
<trk>
<name>lreho20</name>
<cmt>v</cmt>
<desc>Hodeige Sentier n°20 Rue de l'Yerne / Rue de Lens-sur-Geer</desc>
<link href="https://chemins.be/hodeige/sentier/20"/><trkseg>
<trkpt lat="50.697839" lon="5.340420"><time>2026-05-02T17:44:26Z</time></trkpt>
<trkpt lat="50.697669" lon="5.340935"><time>2026-05-02T17:54:26Z</time></trkpt>
<trkpt lat="50.697856" lon="5.341606"><time>2026-05-02T18:04:26Z</time></trkpt>
</trkseg></trk>
<trk>
<name>lreho20</name>
<cmt>q</cmt>
<desc>Hodeige Sentier n°20 Rue de l'Yerne / Rue de Lens-sur-Geer</desc>
<link href="https://chemins.be/hodeige/sentier/20"/><trkseg>
<trkpt lat="50.697856" lon="5.341606"><time>2026-05-02T18:04:26Z</time></trkpt>
<trkpt lat="50.697543" lon="5.342287"><time>2026-05-02T18:14:26Z</time></trkpt>
<trkpt lat="50.697282" lon="5.343113"><time>2026-05-02T18:24:26Z</time></trkpt>
</trkseg></trk>
<trk>
<name>lreho20</name>
<cmt>r</cmt>
<desc>Hodeige Sentier n°20 Rue de l'Yerne / Rue de Lens-sur-Geer</desc>
<link href="https://chemins.be/hodeige/sentier/20"/><trkseg>
<trkpt lat="50.697282" lon="5.343113"><time>2026-05-02T18:24:26Z</time></trkpt>
<trkpt lat="50.697547" lon="5.343403"><time>2026-05-02T18:34:26Z</time></trkpt>
</trkseg></trk>
<trk>
<name>lreho20</name>
<cmt>q</cmt>
<desc>Hodeige Sentier n°20 Rue de l'Yerne / Rue de Lens-sur-Geer</desc>
<link href="https://chemins.be/hodeige/sentier/20"/><trkseg>
<trkpt lat="50.697547" lon="5.343403"><time>2026-05-02T18:34:26Z</time></trkpt>
<trkpt lat="50.697047" lon="5.345061"><time>2026-05-02T18:44:26Z</time></trkpt>
<trkpt lat="50.696232" lon="5.346756"><time>2026-05-02T18:54:26Z</time></trkpt>
</trkseg>
</trk>
<trk>
<name>lreho21</name>
<cmt>s</cmt>
<desc>Hodeige Sentier n°21 Rue de Fize le Marsal</desc>
<link href="https://chemins.be/hodeige/sentier/21"/><trkseg>
<trkpt lat="50.702956" lon="5.341769"><time>2026-05-02T17:44:26Z</time></trkpt>
<trkpt lat="50.701213" lon="5.343316"><time>2026-05-02T17:54:26Z</time></trkpt>
<trkpt lat="50.699510" lon="5.345004"><time>2026-05-02T18:04:26Z</time></trkpt>
</trkseg></trk>
<trk>
<name>lreho21</name>
<cmt>q</cmt>
<desc>Hodeige Sentier n°21 Rue de Fize le Marsal</desc>
<link href="https://chemins.be/hodeige/sentier/21"/><trkseg>
<trkpt lat="50.699510" lon="5.345004"><time>2026-05-02T18:04:26Z</time></trkpt>
<trkpt lat="50.698957" lon="5.345784"><time>2026-05-02T18:14:26Z</time></trkpt>
<trkpt lat="50.698064" lon="5.346020"><time>2026-05-02T18:24:26Z</time></trkpt>
</trkseg></trk>
<trk>
<name>lreho21</name>
<cmt>r</cmt>
<desc>Hodeige Sentier n°21 Rue de Fize le Marsal</desc>
<link href="https://chemins.be/hodeige/sentier/21"/><trkseg>
<trkpt lat="50.698064" lon="5.346020"><time>2026-05-02T18:24:26Z</time></trkpt>
<trkpt lat="50.697123" lon="5.346482"><time>2026-05-02T18:34:26Z</time></trkpt>
</trkseg></trk>
<trk>
<name>lreho21</name>
<cmt>v</cmt>
<desc>Hodeige Sentier n°21 Rue de Fize le Marsal</desc>
<link href="https://chemins.be/hodeige/sentier/21"/><trkseg>
<trkpt lat="50.697123" lon="5.346482"><time>2026-05-02T18:34:26Z</time></trkpt>
<trkpt lat="50.696820" lon="5.347103"><time>2026-05-02T18:44:26Z</time></trkpt>
<trkpt lat="50.696573" lon="5.347551"><time>2026-05-02T18:54:26Z</time></trkpt>
<trkpt lat="50.696435" lon="5.347681"><time>2026-05-02T19:04:26Z</time></trkpt>
</trkseg></trk>
<trk>
<name>lreho21</name>
<cmt>q</cmt>
<desc>Hodeige Sentier n°21 Rue de Fize le Marsal</desc>
<link href="https://chemins.be/hodeige/sentier/21"/><trkseg>
<trkpt lat="50.696435" lon="5.347681"><time>2026-05-02T19:04:26Z</time></trkpt>
<trkpt lat="50.696128" lon="5.348148"><time>2026-05-02T19:14:26Z</time></trkpt>
<trkpt lat="50.695537" lon="5.350208"><time>2026-05-02T19:24:26Z</time></trkpt>
<trkpt lat="50.694687" lon="5.351034"><time>2026-05-02T19:34:26Z</time></trkpt>
<trkpt lat="50.694150" lon="5.353019"><time>2026-05-02T19:44:26Z</time></trkpt>
</trkseg>
</trk>
<trk>
<name>lreho23</name>
<cmt>r</cmt>
<desc>Hodeige Sentier n°23 Rue de l'Yerne</desc>
<link href="https://chemins.be/hodeige/sentier/23"/><trkseg>
<trkpt lat="50.695301" lon="5.338092"><time>2026-05-02T17:44:26Z</time></trkpt>
<trkpt lat="50.695275" lon="5.338048"><time>2026-05-02T17:54:26Z</time></trkpt>
<trkpt lat="50.695297" lon="5.337856"><time>2026-05-02T18:04:26Z</time></trkpt>
<trkpt lat="50.694953" lon="5.337344"><time>2026-05-02T18:14:26Z</time></trkpt>
</trkseg></trk>
<trk>
<name>lreho23</name>
<cmt>q</cmt>
<desc>Hodeige Sentier n°23 Rue de l'Yerne</desc>
<link href="https://chemins.be/hodeige/sentier/23"/><trkseg>
<trkpt lat="50.694953" lon="5.337344"><time>2026-05-02T18:14:26Z</time></trkpt>
<trkpt lat="50.694512" lon="5.336333"><time>2026-05-02T18:24:26Z</time></trkpt>
<trkpt lat="50.693435" lon="5.334605"><time>2026-05-02T18:34:26Z</time></trkpt>
</trkseg>
</trk>
<trk>
<name>lreho3</name>
<cmt>r</cmt>
<desc>Hodeige Chemin n°3 </desc>
<link href="https://chemins.be/hodeige/chemin/3"/><trkseg>
<trkpt lat="50.697074" lon="5.335650"><time>2026-05-02T17:44:26Z</time></trkpt>
<trkpt lat="50.697966" lon="5.331373"><time>2026-05-02T17:54:26Z</time></trkpt>
<trkpt lat="50.699176" lon="5.328076"><time>2026-05-02T18:04:26Z</time></trkpt>
</trkseg></trk>
<trk>
<name>lreho3</name>
<cmt>s</cmt>
<desc>Hodeige Chemin n°3 </desc>
<link href="https://chemins.be/hodeige/chemin/3"/><trkseg>
<trkpt lat="50.699176" lon="5.328076"><time>2026-05-02T18:04:26Z</time></trkpt>
<trkpt lat="50.700508" lon="5.325079"><time>2026-05-02T18:14:26Z</time></trkpt>
</trkseg>
</trk>
<trk>
<name>lreho4</name>
<cmt>s</cmt>
<desc>Hodeige Chemin n°4 </desc>
<link href="https://chemins.be/hodeige/chemin/4"/><trkseg>
<trkpt lat="50.697620" lon="5.333079"><time>2026-05-02T17:44:26Z</time></trkpt>
<trkpt lat="50.696872" lon="5.330998"><time>2026-05-02T17:54:26Z</time></trkpt>
<trkpt lat="50.697361" lon="5.327758"><time>2026-05-02T18:04:26Z</time></trkpt>
<trkpt lat="50.696197" lon="5.322425"><time>2026-05-02T18:14:26Z</time></trkpt>
</trkseg>
</trk>
<trk>
<name>lreho5</name>
<cmt>s</cmt>
<desc>Hodeige Chemin n°5 </desc>
<link href="https://chemins.be/hodeige/chemin/5"/><trkseg>
<trkpt lat="50.697358" lon="5.350229"><time>2026-05-02T17:44:26Z</time></trkpt>
<trkpt lat="50.698044" lon="5.354907"><time>2026-05-02T17:54:26Z</time></trkpt>
<trkpt lat="50.698656" lon="5.357031"><time>2026-05-02T18:04:26Z</time></trkpt>
<trkpt lat="50.700287" lon="5.360979"><time>2026-05-02T18:14:26Z</time></trkpt>
<trkpt lat="50.700267" lon="5.364724"><time>2026-05-02T18:24:26Z</time></trkpt>
</trkseg>
</trk>
<trk>
<name>lreho7</name>
<cmt>s</cmt>
<desc>Hodeige Chemin n°7 </desc>
<link href="https://chemins.be/hodeige/chemin/7"/><trkseg>
<trkpt lat="50.698924" lon="5.336248"><time>2026-05-02T17:44:26Z</time></trkpt>
<trkpt lat="50.704949" lon="5.340482"><time>2026-05-02T17:54:26Z</time></trkpt>
</trkseg>
</trk>
</gpx>